Location: Sternwarte_Laufen
(47.9344°N, 12.9346°E)
Time: 04:25:04
(UTC+02:00)

ISS - Pass Details

Date: 10 July 2025
Orbit: 413 x 417 km, 51.6° (Epoch: 12 July)

Event Time Altitude Azimuth Distance (km) Brightness Sun altitude
Rises 04:25:54 0° 286° (WNW) 2,359 -0.2 -7.7°
Reaches altitude 10° 04:28:29 10° 265° (W) 1,492 -1.4 -7.4°
Maximum altitude 04:30:44 17° 223° (SW) 1,140 -2.2 -7.1°
Drops below altitude 10° 04:32:59 10° 180° (S) 1,487 -1.4 -6.9°
Sets 04:35:33 0° 160° (SSE) 2,345 -0.2 -6.6°
